K6PIJ Weather Reports


Display with metric or nautical units.
time (UTC)temp
F
wind
direction
speed
MPH
gust
MPH
rain 1hr
in
rain 24hr
in
rain mn
in
humidity
%
barometer
mb
20180620153604 54 276 1.0 2.0 0.00 0.00 0.00 96 1018.5
20180620153133 54 295 0.0 2.0 0.00 0.00 0.00 96 1018.5
20180620153053 54 295 0.0 2.0 0.00 0.00 0.00 96 1018.5
20180620152650 54 220 0.0 3.0 0.00 0.00 0.00 97 1018.5
20180620152100 54 303 1.0 4.0 0.00 0.00 0.00 97 1018.5
20180620151604 54 277 2.0 4.0 0.00 0.00 0.00 97 1018.5
20180620151439 53 289 1.0 4.0 0.00 0.00 0.00 97 1018.5
20180620151054 54 274 0.0 2.0 0.00 0.00 0.00 97 1018.4
20180620150604 53 297 0.0 2.0 0.00 0.00 0.00 97 1018.3
20180620150050 54 278 1.0 2.0 0.00 0.00 0.00 97 1018.2
20180620145903 53 321 0.0 2.0 0.00 0.00 0.00 97 1018.2
20180620145555 53 326 0.0 2.0 0.00 0.00 0.00 97 1018.1
20180620145104 53 340 0.0 3.0 0.00 0.00 0.00 97 1018.2
20180620144552 53 20 1.0 3.0 0.00 0.00 0.00 97 1018.3
20180620144257 53 60 1.0 3.0 0.00 0.00 0.00 97 1018.3
20180620144104 53 63 1.0 3.0 0.00 0.00 0.00 97 1018.3
20180620143553 53 341 0.0 1.0 0.00 0.00 0.00 97 1018.3
20180620143104 53 340 0.0 2.0 0.00 0.00 0.00 97 1018.4
20180620142721 52 327 0.0 2.0 0.00 0.00 0.00 97 1018.4
20180620142551 53 327 1.0 2.0 0.00 0.00 0.00 97 1018.4
20180620142103 53 333 1.0 2.0 0.00 0.00 0.00 97 1018.3
20180620141553 53 315 1.0 2.0 0.00 0.00 0.00 97 1018.3
20180620141137 52 353 0.0 2.0 0.00 0.00 0.00 97 1018.3
20180620141057 52 353 0.0 2.0 0.00 0.00 0.00 97 1018.3
20180620140607 52 311 1.0 2.0 0.00 0.00 0.00 97 1018.3
20180620140054 52 3 1.0 2.0 0.00 0.00 0.00 97 1018.2
20180620135602 52 32 1.0 3.0 0.00 0.00 0.00 97 1018.2
20180620135525 52 32 0.0 3.0 0.00 0.00 0.00 97 1018.2
20180620135050 52 315 0.0 1.0 0.00 0.00 0.00 97 1018.2
20180620134601 52 315 0.0 0.0 0.00 0.00 0.00 97 1018.1
20180620134050 52 315 0.0 0.0 0.00 0.00 0.00 97 1018.1
20180620133944 52 315 0.0 1.0 0.00 0.00 0.00 97 1018.1
20180620133601 52 315 0.0 1.0 0.00 0.00 0.00 97 1018.2
20180620133049 52 315 0.0 2.0 0.00 0.00 0.00 97 1018.2
20180620132559 52 315 1.0 2.0 0.00 0.00 0.00 97 1018.1
20180620132413 52 315 1.0 2.0 0.00 0.00 0.00 97 1018.2
20180620132049 52 315 1.0 1.0 0.00 0.00 0.00 97 1018.0
20180620131601 52 295 0.0 1.0 0.00 0.00 0.00 97 1018.0
20180620131050 52 291 0.0 0.0 0.00 0.00 0.00 97 1018.1
20180620130829 52 291 0.0 0.0 0.00 0.00 0.00 97 1018.0
20180620130603 52 291 0.0 0.0 0.00 0.00 0.00 97 1017.9
20180620130049 52 291 0.0 0.0 0.00 0.00 0.00 97 1018.0
20180620125557 52 256 0.0 0.0 0.00 0.00 0.00 97 1017.9
20180620125232 52 224 0.0 0.0 0.00 0.00 0.00 97 1017.9
20180620125110 52 224 0.0 0.0 0.00 0.00 0.00 97 1017.9
20180620124555 52 224 0.0 0.0 0.00 0.00 0.00 97 1017.8
20180620124108 52 224 0.0 0.0 0.00 0.00 0.00 97 1017.8
20180620123701 52 231 0.0 0.0 0.00 0.00 0.00 97 1017.9
20180620123601 52 231 0.0 0.0 0.00 0.00 0.00 97 1017.9
20180620123049 52 229 0.0 1.0 0.00 0.00 0.00 97 1017.8
20180620122557 52 242 0.0 1.0 0.00 0.00 0.00 97 1017.9
20180620122116 52 242 0.0 1.0 0.00 0.00 0.00 97 1017.8
20180620122048 52 242 0.0 1.0 0.00 0.00 0.00 97 1017.9
20180620121559 52 217 0.0 0.0 0.00 0.00 0.00 97 1017.9
20180620121048 53 233 0.0 1.0 0.00 0.00 0.00 97 1018.0
20180620120556 52 233 0.0 2.0 0.00 0.00 0.00 97 1018.0
20180620120521 52 232 0.0 2.0 0.00 0.00 0.00 97 1018.0
20180620120104 52 243 0.0 2.0 0.00 0.00 0.00 97 1018.0
20180620115552 52 298 0.0 2.0 0.00 0.00 0.00 97 1018.0
20180620115104 52 298 1.0 2.0 0.00 0.00 0.00 97 1018.1
20180620114925 52 265 0.0 3.0 0.00 0.00 0.00 97 1018.1
20180620114554 52 289 0.0 3.0 0.00 0.00 0.00 97 1018.0
20180620114105 52 262 2.0 3.0 0.00 0.00 0.00 97 1018.0
20180620113555 52 308 1.0 3.0 0.00 0.00 0.00 97 1018.0
20180620113358 52 308 1.0 3.0 0.00 0.00 0.00 97 1018.1
20180620113103 52 296 2.0 2.0 0.00 0.00 0.00 97 1018.0
20180620112553 52 290 1.0 2.0 0.00 0.00 0.00 97 1017.9
20180620112104 52 297 1.0 2.0 0.00 0.00 0.00 97 1017.8
20180620111819 52 317 1.0 2.0 0.00 0.00 0.00 97 1017.9
20180620111552 52 314 1.0 2.0 0.00 0.00 0.00 97 1017.9
20180620111101 52 303 0.0 2.0 0.00 0.00 0.00 97 1017.8
20180620110551 52 299 1.0 1.0 0.00 0.00 0.00 97 1017.8
20180620110233 52 299 0.0 2.0 0.00 0.00 0.00 97 1017.8
20180620110101 52 299 0.0 2.0 0.00 0.00 0.00 97 1017.9
20180620105607 52 312 1.0 2.0 0.00 0.00 0.00 97 1017.8
20180620105057 52 297 1.0 3.0 0.00 0.00 0.00 97 1017.7
20180620104638 52 314 1.0 3.0 0.00 0.00 0.00 97 1017.7
20180620104606 52 285 1.0 3.0 0.00 0.00 0.00 97 1017.7
20180620104055 53 300 2.0 3.0 0.00 0.00 0.00 97 1017.7
20180620103605 53 255 2.0 3.0 0.00 0.00 0.00 97 1017.9
20180620103056 53 300 1.0 3.0 0.00 0.00 0.00 97 1017.8
20180620103040 52 298 0.0 3.0 0.00 0.00 0.00 97 1017.8
20180620102606 53 285 1.0 2.0 0.00 0.00 0.00 97 1017.8
20180620102055 53 246 1.0 2.0 0.00 0.00 0.00 97 1017.8
20180620101606 53 249 0.0 3.0 0.00 0.00 0.00 97 1017.6
20180620101506 52 289 0.0 3.0 0.00 0.00 0.00 97 1017.7
20180620101053 53 276 2.0 3.0 0.00 0.00 0.00 97 1017.8
20180620100559 53 281 1.0 3.0 0.00 0.00 0.00 97 1017.8
20180620100049 53 280 1.0 3.0 0.00 0.00 0.00 97 1017.8
20180620095924 52 290 0.0 3.0 0.00 0.00 0.00 97 1017.8
20180620095558 53 271 1.0 3.0 0.00 0.00 0.00 97 1017.7
20180620095107 53 291 1.0 3.0 0.00 0.00 0.00 97 1017.8
20180620094555 53 290 2.0 4.0 0.00 0.00 0.00 97 1017.8
20180620094330 52 293 1.0 4.0 0.00 0.00 0.00 97 1017.8
20180620094105 53 297 2.0 4.0 0.00 0.00 0.00 97 1018.0
20180620093555 53 295 2.0 4.0 0.00 0.00 0.00 97 1017.9
20180620093048 53 302 2.0 4.0 0.00 0.00 0.00 97 1017.9
20180620092803 52 302 2.0 3.0 0.00 0.00 0.00 97 1017.8
20180620092555 53 280 2.0 4.0 0.00 0.00 0.00 97 1017.8
20180620092106 53 269 2.0 5.0 0.00 0.00 0.00 97 1017.8
20180620091228 52 292 2.0 5.0 0.00 0.00 0.00 97 1017.8
20180620091107 53 290 2.0 5.0 0.00 0.00 0.00 97 1017.8
20180620090555 53 290 3.0 5.0 0.00 0.00 0.00 97 1017.9
20180620090103 53 297 3.0 5.0 0.00 0.00 0.00 97 1017.8
20180620085637 52 285 2.0 5.0 0.00 0.00 0.00 97 1017.9
20180620085549 53 289 2.0 5.0 0.00 0.00 0.00 97 1017.9
20180620085058 53 291 3.0 5.0 0.00 0.00 0.00 97 1018.0
20180620084608 53 294 2.0 4.0 0.00 0.00 0.00 97 1017.9
20180620084055 53 293 1.0 4.0 0.00 0.00 0.00 97 1018.0
20180620084040 53 293 1.0 5.0 0.00 0.00 0.00 97 1018.0
20180620083605 53 264 2.0 5.0 0.00 0.00 0.00 97 1018.0
20180620083053 53 263 3.0 5.0 0.00 0.00 0.00 97 1018.0
20180620082600 53 293 2.0 5.0 0.00 0.00 0.00 97 1018.0
20180620082506 53 293 2.0 5.0 0.00 0.00 0.00 97 1018.0
20180620082048 53 300 3.0 5.0 0.00 0.00 0.00 96 1018.2
20180620081556 53 253 2.0 4.0 0.00 0.00 0.00 96 1018.2
20180620081102 53 293 2.0 4.0 0.00 0.00 0.00 96 1018.3
20180620080925 53 303 2.0 5.0 0.00 0.00 0.00 96 1018.3
20180620080551 53 293 2.0 5.0 0.00 0.00 0.00 96 1018.4
20180620080103 53 308 2.0 5.0 0.00 0.00 0.00 96 1018.4
20180620075607 54 300 2.0 4.0 0.00 0.00 0.00 96 1018.5
20180620075328 53 290 2.0 4.0 0.00 0.00 0.00 96 1018.5
20180620075053 54 288 2.0 4.0 0.00 0.00 0.00 96 1018.5
20180620074603 54 295 0.0 4.0 0.00 0.00 0.00 96 1018.5
20180620074053 54 290 1.0 4.0 0.00 0.00 0.00 96 1018.6
20180620073756 53 271 1.0 3.0 0.00 0.00 0.00 96 1018.5
20180620073603 54 282 2.0 3.0 0.00 0.00 0.00 96 1018.6
20180620073053 54 272 2.0 4.0 0.00 0.00 0.00 96 1018.6
20180620072601 54 296 2.0 4.0 0.00 0.00 0.00 96 1018.7
20180620072207 53 298 2.0 4.0 0.00 0.00 0.00 96 1018.7
20180620072049 54 311 2.0 3.0 0.00 0.00 0.00 96 1018.8
20180620071558 54 287 2.0 3.0 0.00 0.00 0.00 96 1018.8
20180620071108 54 295 2.0 4.0 0.00 0.00 0.00 96 1018.8
20180620070637 53 300 1.0 4.0 0.00 0.00 0.00 96 1018.8
20180620070558 54 288 2.0 4.0 0.00 0.00 0.00 96 1018.8
20180620070048 54 293 3.0 5.0 0.00 0.00 0.00 95 1018.8
20180620065550 54 297 3.0 5.0 0.00 0.00 0.00 95 1018.9
20180620065100 54 299 3.0 6.0 0.00 0.00 0.00 95 1018.9
20180620065008 53 290 2.0 6.0 0.00 0.00 0.00 95 1018.9
20180620064549 54 277 3.0 6.0 0.00 0.00 0.00 95 1018.9
20180620064058 54 281 3.0 6.0 0.00 0.00 0.00 95 1018.9
20180620063606 54 255 3.0 6.0 0.00 0.00 0.00 95 1019.0
20180620063423 54 297 2.0 6.0 0.00 0.00 0.00 95 1019.0
20180620063054 54 284 3.0 6.0 0.00 0.00 0.00 95 1019.0
20180620062605 54 309 4.0 6.0 0.00 0.00 0.00 94 1019.0
20180620062056 54 288 3.0 5.0 0.00 0.00 0.00 94 1018.9
20180620061835 54 291 2.0 6.0 0.00 0.00 0.00 94 1019.0
20180620061559 54 284 3.0 6.0 0.00 0.00 0.00 94 1019.0
20180620061108 54 300 4.0 6.0 0.00 0.00 0.00 94 1019.0
20180620060559 54 296 3.0 6.0 0.00 0.00 0.00 94 1018.9
20180620060257 54 278 3.0 6.0 0.00 0.00 0.00 94 1019.0
20180620060106 55 297 5.0 6.0 0.00 0.00 0.00 94 1018.9
20180620055555 55 294 4.0 6.0 0.00 0.00 0.00 94 1019.0
20180620055108 55 285 4.0 6.0 0.00 0.00 0.00 94 1019.0
20180620054657 54 293 3.0 6.0 0.00 0.00 0.00 94 1019.0
20180620054558 55 279 3.0 6.0 0.00 0.00 0.00 94 1019.0
20180620054106 55 277 3.0 5.0 0.00 0.00 0.00 94 1018.9
20180620053556 55 282 2.0 4.0 0.00 0.00 0.00 94 1018.9
20180620053123 54 271 1.0 5.0 0.00 0.00 0.00 94 1018.9
20180620053107 55 246 2.0 5.0 0.00 0.00 0.00 94 1018.9
20180620052556 55 296 2.0 5.0 0.00 0.00 0.00 94 1018.8
20180620052107 55 265 2.0 4.0 0.00 0.00 0.00 94 1018.8
20180620051559 55 288 3.0 5.0 0.00 0.00 0.00 94 1018.9
20180620051534 54 262 2.0 5.0 0.00 0.00 0.00 94 1018.9
20180620051107 55 238 3.0 5.0 0.00 0.00 0.00 94 1018.8
20180620050554 55 294 2.0 3.0 0.00 0.00 0.00 94 1018.8
20180620050106 55 288 1.0 3.0 0.00 0.00 0.00 94 1018.7
20180620045955 54 276 1.0 3.0 0.00 0.00 0.00 94 1018.7
20180620045553 55 282 1.0 3.0 0.00 0.00 0.00 93 1018.7
20180620045102 55 290 2.0 3.0 0.00 0.00 0.00 93 1018.6
20180620044554 55 295 2.0 3.0 0.00 0.00 0.00 93 1018.6
20180620044403 54 260 1.0 2.0 0.00 0.00 0.00 93 1018.6
20180620043551 55 288 0.0 3.0 0.00 0.00 0.00 93 1018.6
20180620043056 55 285 1.0 3.0 0.00 0.00 0.00 93 1018.6
20180620042737 54 304 1.0 3.0 0.00 0.00 0.00 93 1018.6
20180620042606 55 296 0.0 3.0 0.00 0.00 0.00 93 1018.6
20180620042058 55 294 1.0 5.0 0.00 0.00 0.00 93 1018.6
20180620041548 55 297 2.0 5.0 0.00 0.00 0.00 92 1018.5
20180620041158 54 292 1.0 4.0 0.00 0.00 0.00 92 1018.6
20180620041059 55 278 1.0 4.0 0.00 0.00 0.00 92 1018.5
20180620040549 55 295 2.0 4.0 0.00 0.00 0.00 92 1018.5
20180620040054 55 297 2.0 5.0 0.00 0.00 0.00 92 1018.5
20180620035603 55 233 1.0 4.0 0.00 0.00 0.00 91 1018.5
20180620035547 55 208 1.0 4.0 0.00 0.00 0.00 91 1018.5
20180620035053 55 283 2.0 5.0 0.00 0.00 0.00 91 1018.4
20180620034602 56 266 2.0 5.0 0.00 0.00 0.00 90 1018.4
20180620034053 56 269 3.0 5.0 0.00 0.00 0.00 90 1018.4
20180620034018 55 301 3.0 5.0 0.00 0.00 0.00 89 1018.4
20180620033602 56 263 1.0 6.0 0.00 0.00 0.00 89 1018.5
20180620033049 57 223 4.0 6.0 0.00 0.00 0.00 89 1018.4
20180620032558 57 294 3.0 6.0 0.00 0.00 0.00 89 1018.5
20180620032442 56 248 4.0 6.0 0.00 0.00 0.00 88 1018.4
20180620032107 57 274 3.0 6.0 0.00 0.00 0.00 89 1018.5
20180620031557 57 294 3.0 6.0 0.00 0.00 0.00 88 1018.5
20180620031048 57 278 4.0 6.0 0.00 0.00 0.00 88 1018.5
20180620030909 57 245 4.0 6.0 0.00 0.00 0.00 87 1018.5
20180620030600 57 307 3.0 8.0 0.00 0.00 0.00 88 1018.4
20180620030047 57 290 5.0 8.0 0.00 0.00 0.00 87 1018.5
20180620025554 58 302 4.0 8.0 0.00 0.00 0.00 87 1018.5
20180620025310 57 295 3.0 8.0 0.00 0.00 0.00 88 1018.5
20180620025100 58 296 5.0 8.0 0.00 0.00 0.00 87 1018.5
20180620024608 58 287 5.0 8.0 0.00 0.00 0.00 86 1018.6
20180620024058 58 303 4.0 8.0 0.00 0.00 0.00 86 1018.5
20180620023735 58 256 4.0 9.0 0.00 0.00 0.00 86 1018.6
20180620023550 58 269 4.0 9.0 0.00 0.00 0.00 86 1018.6
20180620023057 58 288 4.0 9.0 0.00 0.00 0.00 86 1018.6
20180620022606 58 295 5.0 9.0 0.00 0.00 0.00 86 1018.6
20180620022202 58 263 3.0 9.0 0.00 0.00 0.00 87 1018.6
20180620022053 58 232 4.0 9.0 0.00 0.00 0.00 86 1018.6
20180620021601 58 266 6.0 9.0 0.00 0.00 0.00 85 1018.6
20180620021052 59 295 6.0 9.0 0.00 0.00 0.00 85 1018.7
20180620020620 58 250 4.0 9.0 0.00 0.00 0.00 85 1018.6
20180620020604 59 290 4.0 9.0 0.00 0.00 0.00 85 1018.6
20180620020051 59 289 5.0 9.0 0.00 0.00 0.00 85 1018.6
20180620015558 59 232 5.0 8.0 0.00 0.00 0.00 85 1018.6
20180620015108 59 274 5.0 8.0 0.00 0.00 0.00 85 1018.6
20180620014956 59 278 4.0 8.0 0.00 0.00 0.00 84 1018.5
20180620014557 59 305 5.0 9.0 0.00 0.00 0.00 85 1018.6
20180620014108 59 293 4.0 9.0 0.00 0.00 0.00 85 1018.6
20180620013557 59 297 5.0 9.0 0.00 0.00 0.00 85 1018.7
20180620013417 59 276 4.0 9.0 0.00 0.00 0.00 86 1018.7
20180620013107 59 282 5.0 9.0 0.00 0.00 0.00 86 1018.6
20180620012554 59 284 5.0 9.0 0.00 0.00 0.00 86 1018.6
20180620012105 58 279 5.0 10.0 0.00 0.00 0.00 87 1018.7
20180620011833 58 250 5.0 10.0 0.00 0.00 0.00 86 1018.7
20180620011555 58 286 6.0 10.0 0.00 0.00 0.00 86 1018.7
20180620011105 59 298 7.0 10.0 0.00 0.00 0.00 84 1018.7
20180620010556 59 280 6.0 12.0 0.00 0.00 0.00 86 1018.7
20180620010259 58 287 7.0 12.0 0.00 0.00 0.00 85 1018.8
20180620010104 59 316 8.0 12.0 0.00 0.00 0.00 84 1018.9
20180620005550 59 281 7.0 12.0 0.00 0.00 0.00 84 1018.8
20180620005101 59 306 6.0 12.0 0.00 0.00 0.00 84 1018.8
20180620004657 59 254 7.0 9.0 0.00 0.00 0.00 85 1018.8
20180620004548 59 307 7.0 9.0 0.00 0.00 0.00 84 1018.8
20180620004059 59 297 6.0 12.0 0.00 0.00 0.00 85 1018.8
20180620003605 59 295 8.0 12.0 0.00 0.00 0.00 85 1018.8
20180620003124 58 276 6.0 12.0 0.00 0.00 0.00 85 1018.9
20180620003057 59 321 6.0 12.0 0.00 0.00 0.00 86 1018.9
20180620002607 59 285 6.0 12.0 0.00 0.00 0.00 85 1018.9
20180620002055 59 267 6.0 10.0 0.00 0.00 0.00 85 1018.8
20180620001605 59 309 7.0 11.0 0.00 0.00 0.00 85 1019.0
20180620001525 59 271 5.0 11.0 0.00 0.00 0.00 86 1018.9
20180620001054 59 307 7.0 14.0 0.00 0.00 0.00 85 1018.9
20180620000604 59 288 9.0 14.0 0.00 0.00 0.00 84 1018.9
20180620000053 59 294 8.0 12.0 0.00 0.00 0.00 84 1018.9
20180619235950 59 258 6.0 12.0 0.00 0.00 0.00 84 1018.9
20180619235602 60 280 8.0 12.0 0.00 0.00 0.00 83 1018.8
20180619235049 60 298 6.0 13.0 0.00 0.00 0.00 83 1018.8
20180619234558 60 242 8.0 16.0 0.00 0.00 0.00 83 1018.8
20180619234357 60 285 9.0 16.0 0.00 0.00 0.00 81 1018.9
20180619234107 61 297 6.0 14.0 0.00 0.00 0.00 83 1018.8
20180619233557 61 283 9.0 14.0 0.00 0.00 0.00 80 1018.7
20180619233109 61 300 8.0 13.0 0.00 0.00 0.00 81 1018.7
20180619232817 61 302 7.0 15.0 0.00 0.00 0.00 82 1018.6
20180619232558 61 285 8.0 15.0 0.00 0.00 0.00 83 1018.6
20180619232107 61 299 9.0 15.0 0.00 0.00 0.00 80 1018.6
20180619231557 61 283 7.0 13.0 0.00 0.00 0.00 80 1018.7
20180619231233 61 275 7.0 13.0 0.00 0.00 0.00 81 1018.7
20180619231106 61 286 8.0 15.0 0.00 0.00 0.00 82 1018.7
20180619230555 61 264 9.0 16.0 0.00 0.00 0.00 80 1018.7
20180619230105 61 270 9.0 16.0 0.00 0.00 0.00 81 1018.7
20180619225636 61 262 9.0 14.0 0.00 0.00 0.00 80 1018.6
20180619225554 62 276 9.0 14.0 0.00 0.00 0.00 80 1018.7
20180619225104 62 281 9.0 16.0 0.00 0.00 0.00 79 1018.6
20180619224553 62 257 9.0 16.0 0.00 0.00 0.00 79 1018.5
20180619224100 62 268 10.0 16.0 0.00 0.00 0.00 80 1018.5
20180619224032 62 273 9.0 16.0 0.00 0.00 0.00 80 1018.5
20180619223550 62 276 9.0 16.0 0.00 0.00 0.00 81 1018.5
20180619223053 63 302 9.0 16.0 0.00 0.00 0.00 79 1018.6
20180619222606 63 302 10.0 16.0 0.00 0.00 0.00 78 1018.4
20180619222458 63 288 9.0 16.0 0.00 0.00 0.00 78 1018.3
20180619222053 63 283 9.0 17.0 0.00 0.00 0.00 79 1018.4
20180619221600 64 289 10.0 17.0 0.00 0.00 0.00 79 1018.4
20180619221049 63 285 10.0 14.0 0.00 0.00 0.00 79 1018.4
20180619220919 63 298 9.0 16.0 0.00 0.00 0.00 78 1018.4
20180619220559 64 297 9.0 16.0 0.00 0.00 0.00 79 1018.5
20180619220049 64 282 10.0 16.0 0.00 0.00 0.00 77 1018.4
20180619215557 65 325 7.0 13.0 0.00 0.00 0.00 78 1018.4
20180619215322 64 281 7.0 13.0 0.00 0.00 0.00 78 1018.4
20180619215108 65 281 8.0 14.0 0.00 0.00 0.00 78 1018.4
20180619214556 65 290 8.0 14.0 0.00 0.00 0.00 78 1018.2
20180619214105 65 251 8.0 12.0 0.00 0.00 0.00 77 1018.2
20180619213738 65 275 7.0 12.0 0.00 0.00 0.00 76 1018.2
20180619213554 65 304 6.0 12.0 0.00 0.00 0.00 78 1018.3
20180619213103 65 285 7.0 12.0 0.00 0.00 0.00 77 1018.3
20180619212555 66 291 8.0 12.0 0.00 0.00 0.00 79 1018.3
20180619212204 65 304 7.0 11.0 0.00 0.00 0.00 77 1018.2
20180619212104 66 300 7.0 11.0 0.00 0.00 0.00 76 1018.2
20180619211552 66 268 7.0 11.0 0.00 0.00 0.00 78 1018.2
20180619211101 66 295 8.0 13.0 0.00 0.00 0.00 76 1018.1
20180619210630 66 297 5.0 13.0 0.00 0.00 0.00 77 1018.2
20180619210549 66 234 6.0 13.0 0.00 0.00 0.00 77 1018.1
20180619210059 66 297 5.0 10.0 0.00 0.00 0.00 77 1018.2
20180619205608 67 307 6.0 10.0 0.00 0.00 0.00 76 1018.1
20180619205055 66 234 4.0 10.0 0.00 0.00 0.00 77 1018.2
20180619205014 66 249 4.0 10.0 0.00 0.00 0.00 77 1018.2
20180619204604 66 285 6.0 9.0 0.00 0.00 0.00 77 1018.2
20180619204054 66 294 5.0 8.0 0.00 0.00 0.00 76 1018.1
20180619203600 66 297 4.0 8.0 0.00 0.00 0.00 76 1018.1
20180619203432 65 295 3.0 8.0 0.00 0.00 0.00 76 1018.1
20180619203049 65 317 4.0 8.0 0.00 0.00 0.00 77 1018.2
20180619202601 65 224 4.0 8.0 0.00 0.00 0.00 76 1018.3
20180619202050 65 310 2.0 7.0 0.00 0.00 0.00 79 1018.3
20180619201850 65 275 2.0 7.0 0.00 0.00 0.00 78 1018.3
20180619201559 65 269 3.0 7.0 0.00 0.00 0.00 78 1018.4
20180619201107 64 315 3.0 8.0 0.00 0.00 0.00 79 1018.4
20180619200553 63 303 2.0 8.0 0.00 0.00 0.00 80 1018.4
20180619200310 63 285 4.0 8.0 0.00 0.00 0.00 80 1018.4
20180619200101 63 241 3.0 9.0 0.00 0.00 0.00 81 1018.4
20180619195549 63 289 5.0 9.0 0.00 0.00 0.00 80 1018.5
20180619195058 63 268 5.0 8.0 0.00 0.00 0.00 80 1018.6
20180619194709 62 277 2.0 9.0 0.00 0.00 0.00 81 1018.6
20180619194606 62 296 2.0 9.0 0.00 0.00 0.00 80 1018.6
20180619194056 62 309 4.0 9.0 0.00 0.00 0.00 81 1018.7
20180619193603 62 210 4.0 8.0 0.00 0.00 0.00 82 1018.8
20180619193131 62 284 4.0 8.0 0.00 0.00 0.00 82 1018.8
20180619193053 62 316 5.0 8.0 0.00 0.00 0.00 82 1018.8
20180619192600 61 282 3.0 11.0 0.00 0.00 0.00 84 1019.0
20180619192050 61 315 4.0 10.0 0.00 0.00 0.00 83 1019.1
20180619191524 60 300 5.0 10.0 0.00 0.00 0.00 84 1019.1
20180619191049 61 267 6.0 11.0 0.00 0.00 0.00 84 1019.1
20180619190558 61 292 5.0 11.0 0.00 0.00 0.00 84 1019.2
20180619190047 61 311 4.0 9.0 0.00 0.00 0.00 84 1019.1
20180619185950 60 299 5.0 9.0 0.00 0.00 0.00 85 1019.2
20180619185554 60 283 5.0 8.0 0.00 0.00 0.00 85 1019.2
20180619185054 60 261 5.0 8.0 0.00 0.00 0.00 84 1019.2
20180619184559 60 268 4.0 8.0 0.00 0.00 0.00 86 1019.2
20180619184345 59 300 5.0 8.0 0.00 0.00 0.00 87 1019.2
20180619184107 60 310 4.0 7.0 0.00 0.00 0.00 87 1019.2
20180619183554 59 300 3.0 7.0 0.00 0.00 0.00 88 1019.2
20180619183101 59 281 5.0 7.0 0.00 0.00 0.00 88 1019.2
20180619182805 58 342 4.0 7.0 0.00 0.00 0.00 88 1019.2
20180619182608 58 301 4.0 7.0 0.00 0.00 0.00 89 1019.2
20180619182057 58 304 5.0 7.0 0.00 0.00 0.00 89 1019.1
20180619181606 58 302 4.0 7.0 0.00 0.00 0.00 90 1019.2
20180619181221 57 293 2.0 6.0 0.00 0.00 0.00 90 1019.1
20180619181054 57 299 4.0 6.0 0.00 0.00 0.00 90 1019.1
20180619180601 57 234 3.0 6.0 0.00 0.00 0.00 92 1019.0
20180619180047 57 298 3.0 6.0 0.00 0.00 0.00 92 1019.0
20180619175624 56 321 2.0 7.0 0.00 0.00 0.00 92 1019.0
20180619175555 57 314 3.0 7.0 0.00 0.00 0.00 92 1019.0
20180619175103 57 304 2.0 8.0 0.00 0.00 0.00 93 1019.0
20180619174553 56 297 1.0 4.0 0.00 0.00 0.00 94 1018.9
20180619174101 56 295 1.0 3.0 0.00 0.00 0.00 94 1019.0
20180619174016 56 304 0.0 3.0 0.00 0.00 0.00 95 1019.0
20180619173607 56 248 1.0 4.0 0.00 0.00 0.00 95 1018.9
20180619173054 55 262 1.0 4.0 0.00 0.00 0.00 95 1018.9
20180619172604 55 243 1.0 4.0 0.00 0.00 0.00 95 1018.9
20180619172434 55 271 0.0 4.0 0.00 0.00 0.00 95 1018.9
20180619172051 55 302 2.0 4.0 0.00 0.00 0.00 96 1018.9
20180619171559 54 300 0.0 4.0 0.00 0.00 0.00 96 1018.9
20180619171106 54 297 1.0 3.0 0.00 0.00 0.00 96 1018.9
20180619170841 54 307 1.0 3.0 0.00 0.00 0.00 96 1019.0
20180619170551 54 301 1.0 3.0 0.00 0.00 0.00 96 1018.9
20180619170055 54 230 1.0 4.0 0.00 0.00 0.00 96 1019.0
20180619165602 54 298 2.0 4.0 0.00 0.00 0.00 96 1019.0
20180619165234 53 251 1.0 5.0 0.00 0.00 0.00 96 1019.1
20180619165051 53 276 2.0 5.0 0.00 0.00 0.00 96 1019.0
20180619164600 53 294 2.0 5.0 0.00 0.00 0.00 96 1019.1
20180619164108 53 296 3.0 4.0 0.00 0.00 0.00 97 1019.1
20180619163650 53 302 1.0 5.0 0.00 0.00 0.00 96 1019.2
20180619163555 53 297 1.0 5.0 0.00 0.00 0.00 96 1019.2
20180619163106 53 267 2.0 5.0 0.00 0.00 0.00 96 1019.2
20180619162554 53 297 2.0 6.0 0.00 0.00 0.00 96 1019.3
20180619162104 53 293 3.0 6.0 0.00 0.00 0.00 96 1019.3
20180619162048 52 282 3.0 5.0 0.00 0.00 0.00 96 1019.3
20180619161552 53 298 4.0 5.0 0.00 0.00 0.00 96 1019.3
20180619161100 53 274 2.0 5.0 0.00 0.00 0.00 96 1019.3
20180619160607 53 301 3.0 5.0 0.00 0.00 0.00 96 1019.4
20180619160509 53 295 2.0 5.0 0.00 0.00 0.00 96 1019.3
20180619160053 53 298 3.0 6.0 0.00 0.00 0.00 96 1019.3
20180619155600 53 272 3.0 6.0 0.00 0.00 0.00 96 1019.3
20180619155108 53 285 2.0 4.0 0.00 0.00 0.00 96 1019.3
20180619154913 53 286 2.0 4.0 0.00 0.00 0.00 96 1019.3
20180619154557 53 273 2.0 4.0 0.00 0.00 0.00 96 1019.2
20180619154109 53 295 3.0 4.0 0.00 0.00 0.00 96 1019.1